The Pas Airport
CYQD : now visible

Airfield :











YOU CAN JOIN US ON...

 
LOGIN :

Register | Disclaimer

   EN    FR    IT 

 









Legend :    VFR   Marginal VFR   IFR   Intensive IFR   Very Intensive IFR
Visi :
Ceiling :
>= 8 km
>= 3000ft
5 to 8 km
1000 to 3000 ft
1500m to 5 km
500 to 1000 ft
800 to 1500m
200 to 500 ft
< 800m
< 200 ft
Symbols :   Thunderstorms  Fog  Heavy snow  Heavy precipitations  Wind > 20 kt






- Airport Elevation : 887 ft
- IATA code : YQD


CYQD - The Pas

EXPIRED METARs :
  • 291500Z AUTO 17008KT 9SM OVC140 M05/M08 A2998 RMK SLP174

TAF TAF CYQD
Valid from the 29 at 13:00 until the 30 at 01:00 UTC


291238Z 2913/3001 14006KT P6SM SCT040 OVC120
TEMPO 2913/2921 4SM -SN BKN040 OVC120
BECMG 2913/2915 20010KT
FM292100 25010KT P6SM SCT020 BKN060
TEMPO 2921/3001 4SM -SN BKN020 OVC040 RMK FCST BASED ON AUTO OBS. NXT FCST BY 291900Z
CZWG FIR / North America



MET'MAP, your aeronautical weather chart ! - Copyright ORBIFLY December 2007 - Disclaimer

ORBIFLY MET'MAP TEAM :

Programming & Development : Alexandra Zaïnal
Concept & original design : Baudouin d'Aumeries
Assistance for programming : Marc-Olivier Méhu
Technical & hardware support : Manuel Goepfert

Contact : metmap@orbifly.com




SOURCES & CREDITS :

   NOAA       Earth
Advisory